Tracking 25707 objects as of 29-Jun-2022
HD Live streaming from Space Station
objects crossing your sky now

GALAXY 10R

Track GALAXY 10R now!
GALAXY 10R is classified as:


NORAD ID: 26056
Int'l Code: 2000-002A
Perigee: 35,938.6 km
Apogee: 36,005.4 km
Inclination: 9.9 °
Period: 1,445.2 minutes
Semi major axis: 42342 km
RCS: 16.229 m2 (large)
Launch date: January 25, 2000
Source: United States (US)
Launch site: FRENCH GUIANA (FRGUI)

Digital and voice communications; 24 C-band< 24 Ku-band; North America.
aabbcc
Your satellite tracking list
Your tracking list is empty




NASA's NSSDC Master Catalog

Two Line Element Set (TLE):
1 26056U 00002A   22180.50978108 -.00000265  00000-0  00000-0 0  9996
2 26056   9.8834  41.0344 0007879  76.9267  93.1252  0.99639267 81896
Source of the keplerian elements: AFSPC